[[{"header":{"parameterUnit":"m.s-1","parameterCategory":2,"la1":30.2991,"la2":30.254,"lo1":-89.0895,"lo2":-89.0444,"dy":0.0017,"dx":0.0017,"nx":28,"ny":28,"refTime":"2023-09-20T09:00:00:Z","depth":"0","parameterNumber":2,"parameterNumberName":"U-component_of_CURRENTS"},"data":[0,0,0,0,0,0,0,0,0,0,0,0,0,0,0,0,0,0,0,0,0,0,0,0,0,0,0,0,0,0,0,0,0,0,0,0,0,0,0,0,0,0,0,0,0,0,0,0,0,0,0,0,0,0,0,0,0,0,-0.2723,-0.2723,0,-0.2745,-0.2745,-0.2745,-0.2717,-0.2716,-0.2716,-0.2715,-0.267,-0.267,-0.2669,0,0,0,0,0,0,0,0,0,0,0,0,0,-0.2625,-0.2627,-0.2722,-0.2723,-0.2724,-0.2745,-0.2745,-0.2745,-0.2717,-0.2716,-0.2715,-0.2715,-0.2671,-0.267,-0.2669,0,0,0,0,0,0,0,0,0,0,0,0,0,-0.2656,-0.2628,-0.2722,-0.2715,-0.2715,-0.2745,-0.2745,-0.2745,-0.2717,-0.2716,-0.2715,-0.2714,-0.2671,-0.267,-0.2669,-0.2683,0,0,-0.2666,-0.2666,0,0,0,0,0,0,0,0,-0.2654,-0.2659,-0.2716,-0.2716,-0.2716,-0.2731,-0.2695,-0.2723,-0.2717,-0.2712,-0.2715,-0.2714,-0.2688,-0.2686,-0.2687,-0.2681,-0.2679,-0.2666,-0.2666,-0.2665,-0.2665,0,0,0,0,0,0,0,-0.2652,-0.2658,-0.2727,-0.2717,-0.2717,-0.2702,-0.2705,-0.27,-0.27,-0.2712,-0.2711,-0.2721,-0.2687,-0.2688,-0.2686,-0.2678,-0.2666,-0.2666,-0.2665,-0.2665,-0.2701,-0.2702,0,0,0,0,0,0,-0.2661,-0.2656,-0.2726,-0.2728,-0.2687,-0.2705,-0.2708,-0.2724,-0.2702,-0.27,-0.2722,-0.272,-0.269,-0.2687,-0.2684,-0.2718,-0.2665,-0.2665,-0.2664,-0.2699,-0.2701,-0.2703,0,0,0,0,0,0,-0.2659,-0.2667,-0.2726,-0.2695,-0.2702,-0.2708,-0.2726,-0.2725,-0.2727,-0.2711,-0.2706,-0.2726,-0.2689,-0.2685,-0.2691,-0.2715,-0.2664,-0.2663,-0.2698,-0.27,-0.2702,-0.2773,0,0,0,0,0,0,-0.2656,-0.2667,-0.2676,-0.2696,-0.2705,-0.2756,-0.2727,-0.2726,-0.2737,-0.2734,-0.2713,-0.2708,-0.2688,-0.2693,-0.269,-0.2713,-0.2663,-0.2696,-0.2699,-0.2701,-0.2769,-0.2778,-0.2785,0,0,0,0,0,-0.2653,-0.2675,-0.2676,-0.2685,-0.2719,-0.2757,-0.276,-0.2757,-0.2738,-0.2752,-0.2736,-0.2709,-0.2708,-0.2693,-0.269,-0.2713,-0.2694,-0.2698,-0.2701,-0.2765,-0.2776,-0.2785,0,0,0,0,0,0,-0.2635,-0.2676,-0.2677,-0.271,-0.2737,-0.2754,-0.2764,-0.2764,-0.2763,-0.2753,-0.2726,-0.2722,-0.2737,-0.2718,-0.2702,-0.2733,-0.2697,-0.27,-0.2748,-0.2757,-0.2765,-0.277,-0.2662,0,0,0,0,0,-0.2639,-0.2663,-0.2701,-0.2724,-0.274,-0.2752,-0.2763,-0.2768,-0.2774,-0.2772,-0.2758,-0.2747,-0.275,-0.2747,-0.2744,-0.276,-0.2741,-0.2773,-0.2781,-0.2788,-0.2792,-0.2792,-0.2801,-0.2714,-0.2714,-0.2714,0,0,-0.2634,-0.2662,-0.2673,-0.2721,-0.2735,-0.2773,-0.2755,-0.2783,-0.2809,-0.2767,-0.2786,-0.2774,-0.2762,-0.2782,-0.2786,-0.2766,-0.2805,-0.2792,-0.2798,-0.2798,-0.2797,-0.2805,-0.2812,-0.2716,-0.2716,-0.2715,0,0,-0.2645,-0.2668,-0.2693,-0.2727,-0.2767,-0.2784,-0.2797,-0.2824,-0.283,-0.2853,-0.2833,-0.2839,-0.2835,-0.2839,-0.2838,-0.2889,-0.2849,-0.2886,-0.2928,-0.2929,-0.2936,-0.2941,-0.2933,-0.2938,-0.2888,-0.2888,-0.2888,0,-0.2635,-0.2679,-0.2706,-0.2747,-0.2776,-0.2794,-0.2832,-0.2854,-0.2877,-0.2887,-0.2866,-0.2878,-0.2865,-0.2898,-0.2916,-0.2908,-0.2894,-0.2891,-0.2939,-0.2944,-0.2949,-0.2939,-0.2943,-0.2892,-0.2891,-0.2891,-0.289,0,-0.267,-0.2709,-0.273,-0.2789,-0.2825,-0.2861,-0.2906,-0.2933,-0.2936,-0.295,-0.2977,-0.2966,-0.2966,-0.2974,-0.2958,-0.2994,-0.297,-0.295,-0.2912,-0.2962,-0.2948,-0.2951,-0.2897,-0.2896,-0.2895,-0.2894,0,0,-0.2627,-0.2733,-0.2736,-0.2772,-0.285,-0.288,-0.294,-0.2993,-0.3022,-0.3037,-0.3066,-0.308,-0.3061,-0.306,-0.3046,-0.3053,-0.3077,-0.3017,-0.3016,-0.3006,-0.3072,-0.3008,-0.3005,-0.3061,-0.3062,-0.3063,-0.305,0,-0.2638,-0.2715,-0.2771,-0.284,-0.2883,-0.2938,-0.2995,-0.3045,-0.3071,-0.3106,-0.311,-0.3125,-0.31,-0.3094,-0.3103,-0.3082,-0.3087,-0.3082,-0.3028,-0.3027,-0.2961,-0.3007,-0.2903,-0.2879,-0.3053,-0.3053,-0.3054,0,-0.2643,-0.2699,-0.2768,-0.2871,-0.2894,-0.2937,-0.3016,-0.3069,-0.3136,-0.3155,-0.3176,-0.3175,-0.3195,-0.3159,-0.3153,-0.3147,-0.3117,-0.31,-0.3098,-0.3014,-0.2968,-0.2857,-0.2877,-0.2854,-0.3057,-0.3057,-0.3057,0,-0.2582,-0.2691,-0.2741,-0.2778,-0.2899,-0.2932,-0.2984,-0.3065,-0.3109,-0.3171,-0.3196,-0.3221,-0.3219,-0.3202,-0.3163,-0.3157,-0.3147,-0.3129,-0.3048,-0.3042,-0.293,-0.2913,-0.2916,-0.3126,-0.3126,-0.3126,-0.3126,0,-0.2571,-0.2607,-0.2712,-0.2741,-0.28,-0.289,-0.295,-0.3013,-0.3095,-0.3141,-0.3196,-0.3221,-0.3228,-0.3222,-0.3184,-0.312,-0.3157,-0.3063,-0.3039,-0.2953,-0.2939,-0.2893,-0.2907,-0.3126,-0.3126,-0.3126,-0.3126,0,-0.2495,-0.2571,-0.263,-0.2741,-0.2774,-0.2803,-0.2918,-0.2958,-0.305,-0.311,-0.3128,-0.3213,-0.3204,-0.3201,-0.3174,-0.3132,-0.3034,-0.3052,-0.2947,-0.2911,-0.2807,-0.2829,-0.2789,-0.271,-0.2966,-0.2964,-0.2963,0,-0.2464,-0.2485,-0.2592,-0.2617,-0.2663,-0.2729,-0.2777,-0.2903,-0.2953,-0.3091,-0.3107,-0.3149,-0.3151,-0.3109,-0.3042,-0.2973,-0.2958,-0.2851,-0.2824,-0.2795,-0.2803,-0.2806,-0.2743,-0.2707,-0.2704,-0.2701,-0.2699,0,-0.2383,-0.2414,-0.2457,-0.2516,-0.2562,-0.2627,-0.2704,-0.2745,-0.2892,-0.2948,-0.3018,-0.3036,-0.3033,-0.2934,-0.2866,-0.2806,-0.2783,-0.2792,-0.279,-0.2628,-0.2605,-0.2517,-0.2726,-0.2675,-0.2677,-0.2679,-0.268,-0.2681,-0.2289,-0.2295,-0.2345,-0.2387,-0.2439,-0.2482,-0.2479,-0.2582,-0.2637,-0.2695,-0.2831,-0.2828,-0.2838,-0.2723,-0.2674,-0.2563,-0.2592,-0.2494,-0.2531,-0.2544,-0.2444,-0.2599,-0.2505,-0.2506,-0.2507,-0.2508,-0.2509,0,-0.2166,-0.2185,-0.2215,-0.2254,-0.2242,-0.2327,-0.2391,-0.2363,-0.2362,-0.2483,-0.2516,-0.2568,-0.2491,-0.2512,-0.2444,-0.2345,-0.2279,-0.2286,-0.2274,-0.2225,-0.2376,-0.2339,-0.217,-0.217,-0.217,-0.217,-0.217,-0.217,-0.2099,-0.2076,-0.2098,-0.2032,-0.205,-0.1984,-0.1978,-0.1966,-0.2015,-0.2035,-0.2111,-0.2233,-0.2288,-0.2474,-0.2375,-0.2264,-0.2197,-0.2119,-0.2135,-0.2264,-0.2287,-0.2308,-0.2276,-0.2097,-0.2097,-0.1897,-0.1896,-0.1895]},{"header":{"parameterUnit":"m.s-1","parameterCategory":2,"la1":30.2991,"la2":30.254,"lo1":-89.0895,"lo2":-89.0444,"dy":0.0017,"dx":0.0017,"nx":28,"ny":28,"refTime":"2023-09-20T09:00:00:Z","depth":"0","parameterNumber":3,"parameterNumberName":"V-component_of_CURRENTS"},"data":[0,0,0,0,0,0,0,0,0,0,0,0,0,0,0,0,0,0,0,0,0,0,0,0,0,0,0,0,0,0,0,0,0,0,0,0,0,0,0,0,0,0,0,0,0,0,0,0,0,0,0,0,0,0,0,0,0,0,-0.0155,-0.0154,0,-0.005,-0.0049,-0.0048,0.0016,0.0016,0.0016,0.0017,0.0154,0.0157,0.016,0,0,0,0,0,0,0,0,0,0,0,0,0,-0.0235,-0.0234,-0.0155,-0.0153,-0.0152,-0.005,-0.0049,-0.0047,0.0016,0.0016,0.0017,0.0017,0.0153,0.0157,0.0161,0,0,0,0,0,0,0,0,0,0,0,0,0,-0.0172,-0.0234,-0.0155,-0.0109,-0.0104,-0.0051,-0.0049,-0.0047,0.0016,0.0016,0.0017,0.0017,0.0151,0.0156,0.0161,0.0185,0,0,0.0177,0.0179,0,0,0,0,0,0,0,0,-0.0176,-0.0169,-0.0117,-0.0112,-0.0106,-0.003,-0.0027,0.0032,0.0016,-0.0029,0.0017,0.0017,0.0094,0.0104,0.0124,0.0192,0.0197,0.0177,0.018,0.0183,0.0184,0,0,0,0,0,0,0,-0.018,-0.0173,-0.0113,-0.0116,-0.0109,-0.0071,-0.0062,-0.0015,0.003,-0.0025,-0.002,-0.001,0.0098,0.0118,0.0127,0.0199,0.0177,0.0182,0.0185,0.0187,0.0305,0.0305,0,0,0,0,0,0,-0.0198,-0.0177,-0.0116,-0.011,-0.0141,-0.007,-0.006,-0.0054,0.0029,0.0042,-0.001,-0.0007,0.0109,0.0121,0.0132,0.0168,0.0183,0.0187,0.019,0.0305,0.0305,0.0305,0,0,0,0,0,0,-0.02,-0.0194,-0.012,-0.0141,-0.0129,-0.007,-0.0063,-0.0053,-0.0032,0.004,0.0054,-0.0001,0.011,0.0125,0.0175,0.0174,0.019,0.0194,0.0305,0.0305,0.0305,0.0238,0,0,0,0,0,0,-0.0203,-0.0195,-0.02,-0.0143,-0.0129,-0.01,-0.0063,-0.0051,-0.0026,-0.0021,0.0053,0.0066,0.0112,0.0167,0.018,0.0181,0.0198,0.0305,0.0305,0.0305,0.024,0.0236,0.0233,0,0,0,0,0,-0.0206,-0.0218,-0.0201,-0.0194,-0.0137,-0.01,-0.009,-0.0045,-0.0026,-0.0024,0.0032,0.0064,0.0177,0.0171,0.0187,0.0189,0.0305,0.0305,0.0305,0.0242,0.0237,0.0233,0,0,0,0,0,0,-0.0257,-0.0211,-0.0191,-0.0189,-0.0152,-0.009,-0.0085,-0.0051,-0.0005,-0.0001,0.0069,0.0086,0.0127,0.0168,0.016,0.0224,0.0245,0.0248,0.0192,0.0187,0.0183,0.0165,0.0203,0,0,0,0,0,-0.0271,-0.0269,-0.0215,-0.0215,-0.02,-0.0143,-0.0123,-0.0093,-0.0043,-0.0023,0.0031,0.0089,0.0139,0.017,0.0216,0.0255,0.03,0.0266,0.0262,0.0258,0.0254,0.0322,0.0324,0.0306,0.0306,0.0306,0,0,-0.029,-0.0266,-0.0264,-0.0226,-0.0194,-0.018,-0.0131,-0.0108,-0.0092,-0.0015,0.0021,0.0075,0.0145,0.0186,0.0208,0.0222,0.0287,0.0258,0.0255,0.0253,0.0323,0.0325,0.0326,0.0306,0.0306,0.0306,0,0,-0.0333,-0.0307,-0.032,-0.0293,-0.0253,-0.0214,-0.0211,-0.0152,-0.0122,-0.008,-0.0021,0.0035,0.0107,0.0163,0.02,0.0204,0.0259,0.0214,0.0187,0.0253,0.0255,0.0257,0.0312,0.032,0.0217,0.0217,0.0217,0,-0.0362,-0.0367,-0.0318,-0.0321,-0.0306,-0.0235,-0.0241,-0.0197,-0.0129,-0.0101,-0.0082,0.0041,0.0098,0.0165,0.0165,0.0195,0.0236,0.0197,0.0247,0.025,0.0254,0.031,0.0319,0.0214,0.0214,0.0214,0.0215,0,-0.0408,-0.0412,-0.0418,-0.0396,-0.0371,-0.0367,-0.03,-0.0269,-0.0222,-0.017,-0.0101,-0.0015,0.0059,0.0087,0.0128,0.0183,0.0204,0.0229,0.0255,0.0251,0.0311,0.0322,0.0209,0.021,0.0211,0.0212,0,0,-0.0474,-0.0458,-0.0459,-0.0466,-0.0412,-0.0398,-0.0365,-0.0312,-0.0287,-0.0209,-0.0166,-0.007,-0.0015,0.003,0.0098,0.0159,0.022,0.0196,0.0201,0.0243,0.0358,0.0406,0.0423,0.0251,0.0252,0.0254,0.0388,0,-0.0528,-0.0567,-0.0528,-0.0549,-0.0561,-0.0484,-0.0459,-0.0397,-0.0328,-0.0267,-0.0158,-0.0096,-0.0037,-0.0002,0.007,0.0186,0.0246,0.018,0.0362,0.0368,0.0405,0.0436,0.0481,0.0608,0.0399,0.0401,0.0402,0,-0.0585,-0.0604,-0.0645,-0.0633,-0.0628,-0.062,-0.0562,-0.0529,-0.0416,-0.0362,-0.0266,-0.0176,-0.0061,-0.0021,0.0175,0.013,0.023,0.0318,0.0326,0.0401,0.0436,0.0581,0.0636,0.0812,0.042,0.0419,0.0417,0,-0.0665,-0.0681,-0.0721,-0.0717,-0.0688,-0.0681,-0.0655,-0.0563,-0.0532,-0.0417,-0.0376,-0.0224,-0.0141,0.0006,0.0198,0.0185,0.0412,0.0421,0.0558,0.0562,0.0653,0.0663,0.0895,0.0544,0.0544,0.0544,0.0543,0,-0.0739,-0.0767,-0.0767,-0.0786,-0.0824,-0.0765,-0.0766,-0.0711,-0.0625,-0.0582,-0.0435,-0.0359,-0.0132,0.0034,0.0189,0.0421,0.0412,0.0563,0.0607,0.063,0.0636,0.0834,0.0897,0.0549,0.0548,0.0547,0.0546,0,-0.0817,-0.0817,-0.0864,-0.0862,-0.0865,-0.089,-0.0858,-0.0849,-0.0754,-0.069,-0.0657,-0.0448,-0.0219,0.0015,0.0279,0.0416,0.074,0.0698,0.0707,0.0749,0.1024,0.1079,0.1337,0.1441,0.0868,0.0871,0.0872,0,-0.0863,-0.0897,-0.0935,-0.0973,-0.0977,-0.0998,-0.1009,-0.0931,-0.0905,-0.0737,-0.071,-0.0473,-0.0282,0.0132,0.0427,0.0728,0.0852,0.0922,0.0907,0.1063,0.1158,0.1187,0.1257,0.1003,0.1005,0.1008,0.1009,0,-0.0943,-0.0953,-0.0993,-0.108,-0.1116,-0.1145,-0.1144,-0.1141,-0.1024,-0.0934,-0.0765,-0.0595,-0.0165,0.0235,0.0632,0.0799,0.1061,0.0975,0.1152,0.1299,0.1334,0.1446,0.0878,0.1029,0.1027,0.1025,0.1024,0.1024,-0.0993,-0.105,-0.1106,-0.1183,-0.1231,-0.127,-0.1285,-0.1246,-0.1185,-0.1014,-0.0825,-0.0524,0.0077,0.0663,0.0871,0.1308,0.1241,0.1418,0.1477,0.1495,0.1592,0.1057,0.1244,0.1243,0.1242,0.1242,0.1241,0,-0.1056,-0.1117,-0.1204,-0.1287,-0.1354,-0.1349,-0.1354,-0.1325,-0.1247,-0.103,-0.0815,-0.0144,0.0434,0.0959,0.1603,0.1815,0.1848,0.19,0.1967,0.2018,0.1575,0.1577,0.1827,0.1826,0.1826,0.1826,0.1826,0.1826,-0.1089,-0.119,-0.1239,-0.1369,-0.1422,-0.1469,-0.1465,-0.1385,-0.1227,-0.0855,-0.0476,-0.0144,0.0626,0.1703,0.2284,0.2307,0.2488,0.2438,0.2541,0.2244,0.2203,0.2164,0.2185,0.2558,0.2559,0.2972,0.2976,0.2979]}],[{"header":{"parameterUnit":"m.s-1","parameterCategory":2,"la1":30.2991,"la2":30.254,"lo1":-89.0895,"lo2":-89.0444,"dy":0.0017,"dx":0.0017,"nx":28,"ny":28,"refTime":"2023-09-20T09:00:00:Z","depth":"2","parameterNumber":2,"parameterNumberName":"U-component_of_CURRENTS"},"data":[0,0,0,0,0,0,0,0,0,0,0,0,0,0,0,0,0,0,0,0,0,0,0,0,0,0,0,0,0,0,0,0,0,0,0,0,0,0,0,0,0,0,0,0,0,0,0,0,0,0,0,0,0,0,0,0,0,0,-0.2534,-0.2535,0,-0.2556,-0.2556,-0.2556,-0.2533,-0.2533,-0.2532,-0.2532,-0.2495,-0.2494,-0.2494,0,0,0,0,0,0,0,0,0,0,0,0,0,-0.2442,-0.2444,-0.2534,-0.2535,-0.2535,-0.2556,-0.2556,-0.2556,-0.2534,-0.2533,-0.2532,-0.2532,-0.2495,-0.2495,-0.2494,0,0,0,0,0,0,0,0,0,0,0,0,0,-0.2471,-0.2445,-0.2534,-0.253,-0.253,-0.2556,-0.2556,-0.2556,-0.2534,-0.2533,-0.2532,-0.2531,-0.2495,-0.2495,-0.2494,-0.2504,0,0,-0.2491,-0.2491,0,0,0,0,0,0,0,0,-0.247,-0.2474,-0.253,-0.253,-0.253,-0.2545,-0.2511,-0.2537,-0.2534,-0.2528,-0.2532,-0.2531,-0.251,-0.2508,-0.2508,-0.2503,-0.2501,-0.2491,-0.2491,-0.2491,-0.249,0,0,0,0,0,0,0,-0.2468,-0.2473,-0.2539,-0.253,-0.2531,-0.2517,-0.252,-0.2515,-0.2518,-0.2528,-0.2528,-0.2537,-0.2509,-0.2509,-0.2507,-0.25,-0.2491,-0.2491,-0.249,-0.249,-0.2527,-0.2529,0,0,0,0,0,0,-0.2476,-0.2472,-0.2538,-0.254,-0.2502,-0.252,-0.2523,-0.2538,-0.252,-0.2518,-0.2538,-0.2536,-0.2511,-0.2508,-0.2506,-0.2543,-0.2491,-0.249,-0.2489,-0.2526,-0.2528,-0.2529,0,0,0,0,0,0,-0.2474,-0.2482,-0.2537,-0.2509,-0.2515,-0.2523,-0.2539,-0.2539,-0.2544,-0.2528,-0.2524,-0.2545,-0.251,-0.2507,-0.2515,-0.254,-0.249,-0.2489,-0.2524,-0.2526,-0.2528,-0.2601,0,0,0,0,0,0,-0.2472,-0.2481,-0.2491,-0.251,-0.2517,-0.2567,-0.254,-0.254,-0.2553,-0.2551,-0.2533,-0.2529,-0.2509,-0.2517,-0.2514,-0.2538,-0.2488,-0.2522,-0.2525,-0.2528,-0.2596,-0.2605,-0.2612,0,0,0,0,0,-0.2468,-0.2491,-0.2492,-0.25,-0.2533,-0.2568,-0.2571,-0.257,-0.2555,-0.2569,-0.2556,-0.253,-0.2532,-0.2517,-0.2514,-0.2538,-0.2521,-0.2524,-0.2527,-0.2593,-0.2603,-0.2612,0,0,0,0,0,0,-0.2454,-0.2491,-0.2493,-0.2524,-0.255,-0.2566,-0.2577,-0.2578,-0.2579,-0.2572,-0.2547,-0.2543,-0.2561,-0.2542,-0.2527,-0.2558,-0.2523,-0.2526,-0.2574,-0.2583,-0.2591,-0.2597,-0.2488,0,0,0,0,0,-0.2458,-0.2482,-0.2516,-0.2539,-0.2555,-0.2566,-0.2578,-0.2584,-0.259,-0.259,-0.2579,-0.2569,-0.2573,-0.2571,-0.2569,-0.2585,-0.2567,-0.26,-0.2608,-0.2615,-0.2618,-0.2619,-0.2627,-0.254,-0.254,-0.254,0,0,-0.2455,-0.2481,-0.2491,-0.2537,-0.2551,-0.2587,-0.2571,-0.2599,-0.2625,-0.2586,-0.2607,-0.2597,-0.2585,-0.2605,-0.2611,-0.2591,-0.2632,-0.2619,-0.2625,-0.2624,-0.2623,-0.2632,-0.2639,-0.2542,-0.2542,-0.2541,0,0,-0.2467,-0.2489,-0.2514,-0.2546,-0.2585,-0.2601,-0.2614,-0.2641,-0.2649,-0.2673,-0.2654,-0.2663,-0.266,-0.2663,-0.2662,-0.2714,-0.2676,-0.2712,-0.2754,-0.2755,-0.2762,-0.2768,-0.2761,-0.2766,-0.2713,-0.2714,-0.2714,0,-0.2459,-0.2501,-0.2526,-0.2566,-0.2593,-0.2612,-0.2649,-0.2671,-0.2695,-0.2705,-0.2688,-0.2702,-0.269,-0.2722,-0.274,-0.2732,-0.272,-0.2717,-0.2765,-0.277,-0.2775,-0.2767,-0.2771,-0.2717,-0.2717,-0.2717,-0.2716,0,-0.2493,-0.2531,-0.2552,-0.2607,-0.2642,-0.2678,-0.2721,-0.2749,-0.2755,-0.2769,-0.2798,-0.2788,-0.279,-0.2798,-0.2783,-0.282,-0.2797,-0.2776,-0.2739,-0.2788,-0.2776,-0.2779,-0.2723,-0.2722,-0.272,-0.2719,0,0,-0.2455,-0.2555,-0.2559,-0.2594,-0.2668,-0.2696,-0.2756,-0.2807,-0.2836,-0.2854,-0.2884,-0.29,-0.2884,-0.2883,-0.2871,-0.2878,-0.2904,-0.2844,-0.2843,-0.2835,-0.2902,-0.2837,-0.2833,-0.2889,-0.289,-0.2891,-0.2881,0,-0.2468,-0.2541,-0.2593,-0.266,-0.2701,-0.2754,-0.2808,-0.2857,-0.2885,-0.292,-0.2926,-0.2943,-0.2921,-0.2919,-0.2928,-0.2909,-0.2915,-0.2908,-0.2857,-0.2856,-0.279,-0.2835,-0.2607,-0.2575,-0.2884,-0.2884,-0.2885,0,-0.2475,-0.2526,-0.2593,-0.269,-0.2712,-0.2754,-0.2831,-0.2883,-0.2948,-0.2969,-0.2993,-0.2994,-0.3016,-0.2982,-0.2979,-0.2974,-0.2946,-0.2929,-0.2928,-0.2842,-0.2796,-0.2575,-0.2568,-0.2889,-0.2889,-0.2889,-0.2888,0,-0.2419,-0.2521,-0.257,-0.2605,-0.2719,-0.2752,-0.2802,-0.2881,-0.2923,-0.2988,-0.3013,-0.3041,-0.3042,-0.3028,-0.2991,-0.2986,-0.2978,-0.296,-0.2879,-0.2873,-0.2656,-0.263,-0.2958,-0.2958,-0.2958,-0.2959,-0.2959,0,-0.2409,-0.2445,-0.2544,-0.2572,-0.2629,-0.2715,-0.2774,-0.2835,-0.2915,-0.2959,-0.3016,-0.304,-0.3052,-0.3048,-0.3013,-0.2951,-0.2988,-0.2894,-0.2871,-0.2676,-0.2653,-0.2903,-0.2897,-0.2958,-0.2958,-0.2958,-0.2958,0,-0.2339,-0.2412,-0.2468,-0.2574,-0.2606,-0.2635,-0.2744,-0.2782,-0.2874,-0.2932,-0.2951,-0.3034,-0.3027,-0.3027,-0.3004,-0.2962,-0.2919,-0.2885,-0.2656,-0.2607,-0.2811,-0.2809,-0.2804,-0.2801,-0.2799,-0.2798,-0.2796,0,-0.2311,-0.2332,-0.2434,-0.2458,-0.2502,-0.2566,-0.2611,-0.2732,-0.2778,-0.2912,-0.2926,-0.297,-0.2968,-0.2929,-0.2851,-0.2782,-0.2857,-0.2555,-0.251,-0.282,-0.2798,-0.2799,-0.2799,-0.2249,-0.2243,-0.2238,-0.2234,0,-0.2234,-0.2266,-0.2306,-0.2362,-0.2405,-0.2466,-0.2538,-0.2575,-0.2714,-0.2767,-0.283,-0.2845,-0.283,-0.2662,-0.2593,-0.252,-0.2552,-0.246,-0.2826,-0.2335,-0.2299,-0.2277,-0.2295,-0.2193,-0.2197,-0.22,-0.2202,-0.2204,-0.2147,-0.2152,-0.2199,-0.2238,-0.2288,-0.2324,-0.2317,-0.2407,-0.2452,-0.2479,-0.2619,-0.2556,-0.2556,-0.2322,-0.2225,-0.2144,-0.231,-0.2207,-0.222,-0.2239,-0.2188,-0.2151,-0.2008,-0.2011,-0.2013,-0.2015,-0.2017,0,-0.2028,-0.2046,-0.2073,-0.2107,-0.2091,-0.2177,-0.2229,-0.218,-0.2162,-0.2221,-0.223,-0.2019,-0.193,-0.1934,-0.1749,-0.1741,-0.1707,-0.1674,-0.1618,-0.166,-0.1697,-0.1619,-0.1287,-0.1285,-0.1283,-0.1282,0,0,-0.1963,-0.1937,-0.1955,-0.1886,-0.1904,-0.1829,-0.1818,-0.1766,-0.1759,-0.1664,-0.1626,-0.1772,-0.1854,-0.1551,-0.1499,-0.1363,-0.149,-0.1296,-0.1876,-0.1848,-0.1883,-0.1996,-0.1921,0,0,0,0,0]},{"header":{"parameterUnit":"m.s-1","parameterCategory":2,"la1":30.2991,"la2":30.254,"lo1":-89.0895,"lo2":-89.0444,"dy":0.0017,"dx":0.0017,"nx":28,"ny":28,"refTime":"2023-09-20T09:00:00:Z","depth":"2","parameterNumber":3,"parameterNumberName":"V-component_of_CURRENTS"},"data":[0,0,0,0,0,0,0,0,0,0,0,0,0,0,0,0,0,0,0,0,0,0,0,0,0,0,0,0,0,0,0,0,0,0,0,0,0,0,0,0,0,0,0,0,0,0,0,0,0,0,0,0,0,0,0,0,0,0,-0.0179,-0.0178,0,-0.0079,-0.0078,-0.0076,-0.0016,-0.0015,-0.0015,-0.0015,0.0117,0.012,0.0123,0,0,0,0,0,0,0,0,0,0,0,0,0,-0.0255,-0.0254,-0.0179,-0.0178,-0.0177,-0.0079,-0.0078,-0.0076,-0.0016,-0.0015,-0.0015,-0.0015,0.0116,0.012,0.0124,0,0,0,0,0,0,0,0,0,0,0,0,0,-0.0194,-0.0254,-0.0179,-0.0135,-0.013,-0.0079,-0.0078,-0.0076,-0.0016,-0.0015,-0.0015,-0.0015,0.0115,0.0119,0.0124,0.0147,0,0,0.0139,0.0141,0,0,0,0,0,0,0,0,-0.0198,-0.0192,-0.0143,-0.0138,-0.0133,-0.006,-0.0056,0.0,-0.0016,-0.0059,-0.0015,-0.0015,0.006,0.0069,0.0088,0.0154,0.0159,0.014,0.0143,0.0145,0.0146,0,0,0,0,0,0,0,-0.0202,-0.0195,-0.0139,-0.0142,-0.0135,-0.0099,-0.009,-0.0045,-0.0001,-0.0055,-0.005,-0.004,0.0063,0.0083,0.0092,0.0161,0.014,0.0144,0.0147,0.0149,0.0265,0.0265,0,0,0,0,0,0,-0.022,-0.02,-0.0142,-0.0136,-0.0166,-0.0098,-0.0088,-0.0083,-0.0002,0.001,-0.0041,-0.0038,0.0074,0.0086,0.0096,0.0133,0.0145,0.0149,0.0152,0.0265,0.0265,0.0265,0,0,0,0,0,0,-0.0222,-0.0216,-0.0146,-0.0165,-0.0154,-0.0098,-0.0092,-0.0081,-0.0061,0.0008,0.0021,-0.0031,0.0075,0.009,0.0138,0.0138,0.0152,0.0156,0.0264,0.0265,0.0265,0.0202,0,0,0,0,0,0,-0.0224,-0.0217,-0.0222,-0.0167,-0.0154,-0.0126,-0.0092,-0.008,-0.0056,-0.0051,0.002,0.0033,0.0077,0.013,0.0143,0.0145,0.016,0.0264,0.0265,0.0265,0.0204,0.02,0.0197,0,0,0,0,0,-0.0228,-0.0239,-0.0223,-0.0216,-0.0162,-0.0126,-0.0117,-0.0074,-0.0056,-0.0053,0.0001,0.0031,0.014,0.0134,0.0149,0.0153,0.0264,0.0264,0.0265,0.0206,0.0201,0.0197,0,0,0,0,0,0,-0.0276,-0.0232,-0.0214,-0.0212,-0.0176,-0.0117,-0.0111,-0.008,-0.0035,-0.003,0.0036,0.0052,0.0092,0.0132,0.0123,0.0187,0.0206,0.0209,0.0156,0.0152,0.0149,0.0131,0.0164,0,0,0,0,0,-0.0289,-0.0287,-0.0236,-0.0236,-0.0222,-0.0167,-0.0148,-0.0119,-0.0071,-0.0051,0.0001,0.0056,0.0105,0.0135,0.018,0.0218,0.026,0.0229,0.0225,0.0222,0.0218,0.0284,0.0286,0.0266,0.0266,0.0266,0,0,-0.0308,-0.0284,-0.0283,-0.0246,-0.0215,-0.0202,-0.0155,-0.0133,-0.0117,-0.0044,-0.0009,0.0043,0.0111,0.0152,0.0173,0.0186,0.025,0.0222,0.0219,0.0217,0.0284,0.0286,0.0288,0.0266,0.0266,0.0266,0,0,-0.0348,-0.0324,-0.0335,-0.031,-0.0271,-0.0233,-0.0231,-0.0174,-0.0145,-0.0104,-0.0047,0.0007,0.0077,0.0131,0.0167,0.0172,0.0224,0.0182,0.0157,0.0221,0.0223,0.0225,0.0277,0.0285,0.0185,0.0185,0.0185,0,-0.0375,-0.038,-0.0334,-0.0335,-0.0321,-0.0253,-0.0258,-0.0216,-0.015,-0.0124,-0.0105,0.0014,0.0068,0.0135,0.0135,0.0164,0.0203,0.0166,0.0215,0.0219,0.0222,0.0275,0.0284,0.0182,0.0183,0.0183,0.0183,0,-0.0418,-0.0421,-0.0426,-0.0405,-0.0381,-0.0376,-0.0313,-0.0282,-0.0238,-0.0188,-0.0121,-0.0037,0.0034,0.0061,0.0101,0.0155,0.0174,0.0198,0.0222,0.022,0.0276,0.0287,0.0178,0.0179,0.018,0.0181,0,0,-0.048,-0.0464,-0.0466,-0.0471,-0.042,-0.0407,-0.0373,-0.0322,-0.0299,-0.0223,-0.0182,-0.0087,-0.0036,0.0008,0.0074,0.0134,0.0192,0.0168,0.0173,0.0212,0.0325,0.0365,0.038,0.0223,0.0224,0.0225,0.0352,0,-0.0531,-0.0567,-0.053,-0.0549,-0.056,-0.0487,-0.0463,-0.0403,-0.0337,-0.028,-0.0174,-0.0114,-0.0056,-0.0022,0.0048,0.0159,0.0217,0.0155,0.0328,0.0333,0.0363,0.0393,0.0334,0.0444,0.0363,0.0364,0.0366,0,-0.0585,-0.0603,-0.0641,-0.063,-0.0625,-0.0617,-0.0563,-0.0531,-0.0423,-0.0371,-0.0279,-0.0193,-0.008,-0.0041,0.0149,0.0105,0.0202,0.0286,0.0294,0.036,0.0393,0.0436,0.0467,0.0384,0.0383,0.0381,0.038,0,-0.0662,-0.0677,-0.0715,-0.0711,-0.0682,-0.0677,-0.0652,-0.0564,-0.0535,-0.0425,-0.0387,-0.0239,-0.0161,-0.0017,0.0168,0.0157,0.0374,0.0384,0.0511,0.0514,0.0513,0.0515,0.0504,0.0504,0.0503,0.0503,0.0503,0,-0.0733,-0.076,-0.0759,-0.0778,-0.0815,-0.0759,-0.0761,-0.0709,-0.0627,-0.0588,-0.0446,-0.0374,-0.0153,0.0006,0.0157,0.0378,0.0373,0.0515,0.0557,0.049,0.0488,0.0473,0.0468,0.0508,0.0507,0.0506,0.0505,0,-0.0808,-0.0807,-0.0853,-0.0851,-0.0855,-0.088,-0.0851,-0.0844,-0.0754,-0.0695,-0.0663,-0.0464,-0.0245,-0.0018,0.0236,0.0369,0.0568,0.064,0.0545,0.0574,0.0663,0.0653,0.0793,0.0796,0.0798,0.08,0.0801,0,-0.0852,-0.0885,-0.0922,-0.0959,-0.0963,-0.0986,-0.0997,-0.0923,-0.0901,-0.0742,-0.0718,-0.0494,-0.0314,0.0082,0.0353,0.064,0.0639,0.0739,0.0713,0.067,0.0697,0.0683,0.0671,0.0684,0.0684,0.0684,0.0685,0,-0.093,-0.094,-0.0979,-0.1064,-0.11,-0.113,-0.1131,-0.113,-0.1019,-0.0936,-0.0778,-0.062,-0.0224,0.0104,0.0478,0.0625,0.0691,0.0757,0.0756,0.0618,0.0578,0.06,0.0589,0.0688,0.0688,0.0687,0.0687,0.0687,-0.0979,-0.1035,-0.1089,-0.1165,-0.1213,-0.1253,-0.1269,-0.1233,-0.1178,-0.1019,-0.0847,-0.058,-0.0242,0.0288,0.0551,0.0775,0.0774,0.0817,0.0811,0.0806,0.077,0.0735,0.0868,0.0869,0.0869,0.087,0.087,0,-0.104,-0.11,-0.1185,-0.1267,-0.1333,-0.133,-0.1337,-0.1307,-0.1235,-0.1048,-0.0852,-0.0477,-0.0093,0.0246,0.0615,0.0848,0.0805,0.0865,0.0769,0.0764,0.0761,0.0718,0.0805,0.0806,0.0806,0.0807,0,0,-0.1073,-0.117,-0.1218,-0.1346,-0.1399,-0.1445,-0.1443,-0.1361,-0.1221,-0.1028,-0.082,-0.0512,-0.0086,0.0169,0.0461,0.0647,0.0636,0.0645,0.067,0.0517,0.0511,0.0704,0.063,0,0,0,0,0]}],[{"header":{"parameterUnit":"m.s-1","parameterCategory":2,"la1":30.2991,"la2":30.254,"lo1":-89.0895,"lo2":-89.0444,"dy":0.0017,"dx":0.0017,"nx":28,"ny":28,"refTime":"2023-09-20T09:00:00:Z","depth":"4","parameterNumber":2,"parameterNumberName":"U-component_of_CURRENTS"},"data":[0,0,0,0,0,0,0,0,0,0,0,0,0,0,0,0,0,0,0,0,0,0,0,0,0,0,0,0,0,0,0,0,0,0,0,0,0,0,0,0,0,0,0,0,0,0,0,0,0,0,0,0,0,0,0,0,0,0,-0.1745,-0.1746,0,-0.1808,-0.1809,-0.1809,-0.1849,-0.185,-0.185,-0.1851,-0.1897,-0.1898,-0.1899,0,0,0,0,0,0,0,0,0,0,0,0,0,-0.1637,-0.1639,-0.1745,-0.1746,-0.1747,-0.1808,-0.1809,-0.181,-0.1849,-0.185,-0.185,-0.1851,-0.1897,-0.1898,-0.1899,0,0,0,0,0,0,0,0,0,0,0,0,0,-0.1688,-0.1639,-0.1745,-0.1776,-0.178,-0.1808,-0.1809,-0.181,-0.1849,-0.185,-0.1851,-0.1851,-0.1896,-0.1898,-0.1899,-0.1892,0,0,-0.1902,-0.1903,0,0,0,0,0,0,0,0,-0.1685,-0.1692,-0.1771,-0.1774,-0.1779,-0.1824,-0.1788,-0.1837,-0.1849,-0.182,-0.1851,-0.1852,-0.1872,-0.1876,-0.1882,-0.1894,-0.1896,-0.1902,-0.1903,-0.1904,-0.1904,0,0,0,0,0,0,0,-0.1682,-0.1689,-0.1767,-0.1772,-0.1777,-0.178,-0.1788,-0.1797,-0.1839,-0.1822,-0.1826,-0.1837,-0.1874,-0.1881,-0.1884,-0.1896,-0.1902,-0.1904,-0.1904,-0.1905,-0.1998,-0.2,0,0,0,0,0,0,-0.168,-0.1686,-0.1765,-0.177,-0.1736,-0.1782,-0.1791,-0.1806,-0.1839,-0.1846,-0.1837,-0.1839,-0.1879,-0.1882,-0.1885,-0.197,-0.1904,-0.1905,-0.1905,-0.1997,-0.1999,-0.2001,0,0,0,0,0,0,-0.1677,-0.1687,-0.1763,-0.1731,-0.1741,-0.1783,-0.1801,-0.1807,-0.1849,-0.1851,-0.1857,-0.1876,-0.1879,-0.1884,-0.1929,-0.1968,-0.1905,-0.1906,-0.1995,-0.1997,-0.2,-0.208,0,0,0,0,0,0,-0.1674,-0.1685,-0.171,-0.1731,-0.1743,-0.1807,-0.1801,-0.1808,-0.1854,-0.1859,-0.1886,-0.1889,-0.188,-0.1928,-0.1931,-0.1969,-0.1907,-0.1992,-0.1996,-0.1999,-0.2075,-0.2085,-0.2094,0,0,0,0,0,-0.167,-0.1698,-0.1711,-0.1721,-0.1771,-0.1809,-0.1816,-0.1845,-0.1856,-0.1884,-0.1904,-0.189,-0.1951,-0.1931,-0.1933,-0.1973,-0.1991,-0.1995,-0.1999,-0.2071,-0.2083,-0.2093,0,0,0,0,0,0,-0.1665,-0.1706,-0.172,-0.176,-0.1796,-0.1818,-0.1849,-0.1866,-0.1904,-0.1916,-0.1913,-0.1918,-0.1972,-0.1962,-0.1939,-0.201,-0.1968,-0.1973,-0.2022,-0.2034,-0.2043,-0.2042,-0.1908,0,0,0,0,0,-0.1675,-0.1708,-0.1744,-0.1779,-0.18,-0.183,-0.1855,-0.1877,-0.1906,-0.1925,-0.1944,-0.1964,-0.1984,-0.2002,-0.2016,-0.2055,-0.2035,-0.2082,-0.2092,-0.21,-0.2102,-0.2107,-0.2116,-0.2014,-0.2014,-0.2014,0,0,-0.1682,-0.171,-0.173,-0.1781,-0.1809,-0.185,-0.1848,-0.1898,-0.1939,-0.1922,-0.199,-0.2,-0.2002,-0.2048,-0.2071,-0.205,-0.212,-0.2105,-0.2111,-0.2109,-0.2112,-0.2122,-0.213,-0.2017,-0.2016,-0.2016,0,0,-0.1703,-0.1742,-0.1774,-0.1811,-0.1865,-0.1886,-0.1909,-0.1955,-0.1988,-0.2044,-0.2045,-0.2081,-0.2115,-0.2126,-0.2132,-0.2201,-0.2169,-0.2211,-0.2259,-0.2265,-0.2273,-0.228,-0.2272,-0.2277,-0.2216,-0.2216,-0.2216,0,-0.1712,-0.1758,-0.1791,-0.1833,-0.1869,-0.1907,-0.1952,-0.199,-0.2048,-0.2076,-0.208,-0.2142,-0.215,-0.2195,-0.2224,-0.2223,-0.2214,-0.2216,-0.2276,-0.2283,-0.2288,-0.2278,-0.2283,-0.222,-0.222,-0.2219,-0.2219,0,-0.1748,-0.18,-0.1826,-0.1891,-0.1934,-0.1982,-0.2036,-0.2089,-0.2129,-0.2158,-0.2226,-0.2239,-0.2269,-0.2285,-0.2278,-0.2329,-0.2307,-0.2286,-0.2245,-0.2303,-0.2289,-0.2292,-0.2226,-0.2225,-0.2224,-0.2222,0,0,-0.1719,-0.1829,-0.184,-0.1884,-0.1972,-0.2005,-0.2086,-0.2154,-0.2203,-0.2261,-0.2315,-0.2362,-0.2367,-0.2375,-0.2375,-0.239,-0.2428,-0.2364,-0.2362,-0.2351,-0.2435,-0.2276,-0.2264,-0.242,-0.2421,-0.2422,-0.241,0,-0.1738,-0.182,-0.1875,-0.1961,-0.2007,-0.2077,-0.2144,-0.2214,-0.2269,-0.2332,-0.2362,-0.241,-0.2402,-0.2421,-0.2439,-0.243,-0.2441,-0.2432,-0.2384,-0.2382,-0.223,-0.2264,-0.2425,-0.2412,-0.2413,-0.2413,-0.2414,0,-0.1743,-0.1802,-0.1887,-0.1998,-0.2026,-0.2085,-0.2189,-0.2255,-0.2346,-0.239,-0.2442,-0.2463,-0.2508,-0.2485,-0.2501,-0.2497,-0.2476,-0.2464,-0.2462,-0.2285,-0.2229,-0.2341,-0.242,-0.2419,-0.2419,-0.2418,-0.2418,0,-0.1685,-0.1805,-0.1874,-0.1915,-0.2045,-0.21,-0.2167,-0.2268,-0.2323,-0.2422,-0.246,-0.2515,-0.2537,-0.2536,-0.2515,-0.2515,-0.2511,-0.2499,-0.2337,-0.2325,-0.2437,-0.2429,-0.2504,-0.2504,-0.2504,-0.2504,-0.2504,0,-0.1662,-0.1721,-0.1858,-0.1895,-0.1977,-0.2076,-0.2163,-0.224,-0.234,-0.2387,-0.2477,-0.2499,-0.2553,-0.2554,-0.2531,-0.2432,-0.2519,-0.2343,-0.231,-0.2472,-0.2469,-0.2439,-0.2432,-0.2503,-0.2503,-0.2503,-0.2503,0,-0.1582,-0.1679,-0.1762,-0.1905,-0.1954,-0.2007,-0.2147,-0.2193,-0.2309,-0.2371,-0.2401,-0.2494,-0.2485,-0.2509,-0.2499,-0.2424,-0.2365,-0.2309,-0.2478,-0.2456,-0.2176,-0.2174,-0.2127,-0.2121,-0.2116,-0.2112,-0.2108,0,-0.1546,-0.1583,-0.1741,-0.1785,-0.1854,-0.1954,-0.2012,-0.2155,-0.2195,-0.2333,-0.2334,-0.2389,-0.2423,-0.2279,-0.2326,-0.2264,-0.2238,-0.2203,-0.2194,-0.2163,-0.2138,-0.2143,-0.2147,-0.2101,-0.2099,-0.2098,-0.2097,0,-0.1462,-0.1531,-0.1593,-0.1685,-0.176,-0.1835,-0.1927,-0.1944,-0.2088,-0.222,-0.2202,-0.2193,-0.218,-0.216,-0.2126,-0.2085,-0.2226,-0.2152,-0.2162,-0.2153,-0.2132,-0.2112,-0.2121,-0.208,-0.2083,-0.2084,-0.2085,0,-0.1388,-0.1406,-0.1491,-0.1553,-0.1641,-0.1669,-0.175,-0.179,-0.1852,-0.2012,-0.1995,-0.2057,-0.2147,-0.2064,-0.2031,-0.1978,-0.1951,-0.1896,-0.1919,-0.1938,-0.1881,-0.1826,-0.1647,0,0,0,0,0,-0.1301,-0.1302,-0.1349,-0.1407,-0.1485,-0.1533,-0.1664,-0.1746,-0.1893,-0.1825,-0.1906,-0.1884,-0.1844,-0.188,-0.1781,-0.194,-0.1956,-0.1819,-0.1905,-0.1987,-0.2006,-0.1955,0,0,0,0,0,0,-0.1243,-0.128,-0.1295,-0.1258,-0.1265,-0.1333,-0.1406,-0.1516,-0.1497,-0.1653,-0.1634,-0.1758,-0.1738,-0.1849,-0.1731,-0.1742,-0.1757,-0.1871,-0.1866,-0.1975,-0.1993,-0.2009,-0.1963,0,0,0,0,0]},{"header":{"parameterUnit":"m.s-1","parameterCategory":2,"la1":30.2991,"la2":30.254,"lo1":-89.0895,"lo2":-89.0444,"dy":0.0017,"dx":0.0017,"nx":28,"ny":28,"refTime":"2023-09-20T09:00:00:Z","depth":"4","parameterNumber":3,"parameterNumberName":"V-component_of_CURRENTS"},"data":[0,0,0,0,0,0,0,0,0,0,0,0,0,0,0,0,0,0,0,0,0,0,0,0,0,0,0,0,0,0,0,0,0,0,0,0,0,0,0,0,0,0,0,0,0,0,0,0,0,0,0,0,0,0,0,0,0,0,-0.0168,-0.0167,0,-0.0098,-0.0098,-0.0097,-0.0054,-0.0054,-0.0054,-0.0054,0.005,0.0053,0.0055,0,0,0,0,0,0,0,0,0,0,0,0,0,-0.0212,-0.0212,-0.0168,-0.0167,-0.0166,-0.0099,-0.0097,-0.0096,-0.0054,-0.0054,-0.0054,-0.0054,0.0049,0.0052,0.0055,0,0,0,0,0,0,0,0,0,0,0,0,0,-0.0172,-0.0212,-0.0168,-0.0138,-0.0134,-0.0099,-0.0097,-0.0096,-0.0054,-0.0054,-0.0054,-0.0054,0.0048,0.0052,0.0056,0.0077,0,0,0.0068,0.007,0,0,0,0,0,0,0,0,-0.0175,-0.0171,-0.0143,-0.014,-0.0136,-0.0086,-0.0075,-0.0037,-0.0054,-0.0084,-0.0054,-0.0054,0.0007,0.0015,0.0028,0.0081,0.0086,0.0068,0.0071,0.0073,0.0074,0,0,0,0,0,0,0,-0.0178,-0.0173,-0.0139,-0.0142,-0.0138,-0.011,-0.0105,-0.0067,-0.0039,-0.0081,-0.0078,-0.0072,0.0009,0.0024,0.0031,0.0087,0.0068,0.0072,0.0074,0.0076,0.0174,0.0174,0,0,0,0,0,0,-0.0191,-0.0176,-0.0142,-0.0137,-0.0156,-0.011,-0.0103,-0.0101,-0.004,-0.0031,-0.0072,-0.007,0.0017,0.0026,0.0035,0.0067,0.0073,0.0076,0.0079,0.0174,0.0174,0.0174,0,0,0,0,0,0,-0.0192,-0.0189,-0.0144,-0.0155,-0.0148,-0.011,-0.0107,-0.01,-0.0086,-0.0034,-0.0024,-0.0066,0.0018,0.0029,0.0068,0.0071,0.0078,0.0082,0.0174,0.0174,0.0174,0.0129,0,0,0,0,0,0,-0.0194,-0.019,-0.0195,-0.0157,-0.0148,-0.0131,-0.0107,-0.0099,-0.0083,-0.0079,-0.0025,-0.0015,0.0019,0.0062,0.0072,0.0077,0.0085,0.0173,0.0174,0.0174,0.0131,0.0128,0.0126,0,0,0,0,0,-0.0196,-0.0206,-0.0196,-0.0192,-0.0156,-0.0132,-0.0125,-0.0095,-0.0083,-0.0081,-0.0039,-0.0017,0.0072,0.0065,0.0077,0.0083,0.0173,0.0174,0.0174,0.0132,0.0129,0.0126,0,0,0,0,0,0,-0.0228,-0.0201,-0.019,-0.0191,-0.0167,-0.0125,-0.0122,-0.0099,-0.0066,-0.0062,-0.0011,0.0002,0.0035,0.0066,0.0058,0.0113,0.0126,0.0128,0.0089,0.0087,0.0085,0.0068,0.0088,0,0,0,0,0,-0.0239,-0.0241,-0.0206,-0.0209,-0.0199,-0.0161,-0.0148,-0.0128,-0.0092,-0.0078,-0.0037,0.0007,0.0047,0.0071,0.0107,0.014,0.0172,0.0151,0.0149,0.0147,0.0142,0.0198,0.02,0.0176,0.0176,0.0176,0,0,-0.0253,-0.0239,-0.024,-0.0216,-0.0196,-0.0186,-0.0153,-0.0139,-0.0127,-0.0071,-0.0044,-0.0002,0.0052,0.0087,0.0105,0.0114,0.017,0.0147,0.0145,0.0141,0.0198,0.0201,0.0203,0.0176,0.0176,0.0176,0,0,-0.0282,-0.0269,-0.0279,-0.0262,-0.0236,-0.021,-0.0208,-0.0168,-0.0147,-0.0115,-0.0071,-0.0026,0.003,0.0075,0.0104,0.0113,0.0152,0.0122,0.0104,0.0158,0.016,0.0163,0.0201,0.0208,0.0125,0.0125,0.0125,0,-0.0301,-0.0308,-0.0277,-0.0279,-0.0271,-0.0224,-0.0229,-0.0198,-0.0149,-0.013,-0.0116,-0.002,0.0025,0.0081,0.0084,0.0108,0.0138,0.0108,0.0154,0.0157,0.0161,0.02,0.0208,0.0123,0.0123,0.0124,0.0124,0,-0.0331,-0.0337,-0.0342,-0.0329,-0.0313,-0.0312,-0.0267,-0.0246,-0.0215,-0.0178,-0.0124,-0.0056,0.0001,0.0026,0.0059,0.0107,0.0119,0.014,0.0158,0.016,0.0202,0.021,0.012,0.0121,0.0122,0.0122,0,0,-0.0372,-0.0366,-0.0369,-0.0378,-0.0343,-0.0337,-0.0312,-0.0277,-0.0263,-0.0203,-0.0175,-0.0092,-0.0052,-0.0016,0.0039,0.0092,0.0143,0.012,0.0124,0.0152,0.0252,0.0227,0.0234,0.0171,0.0172,0.0173,0.0269,0,-0.0407,-0.0437,-0.0414,-0.0434,-0.0445,-0.0396,-0.0382,-0.034,-0.0293,-0.0252,-0.0165,-0.012,-0.0068,-0.0042,0.0022,0.0113,0.0164,0.0114,0.0251,0.0254,0.0227,0.0243,0.0178,0.0276,0.0278,0.0279,0.028,0,-0.0442,-0.046,-0.0494,-0.0498,-0.0497,-0.0498,-0.0468,-0.0447,-0.0369,-0.0331,-0.0258,-0.0189,-0.0094,-0.0059,0.0103,0.0067,0.0148,0.022,0.0226,0.0223,0.0246,0.0276,0.0296,0.0295,0.0294,0.0293,0.0292,0,-0.0493,-0.0514,-0.055,-0.055,-0.0541,-0.0547,-0.0537,-0.0477,-0.0461,-0.038,-0.0355,-0.0231,-0.017,-0.0045,0.0109,0.0105,0.028,0.0296,0.0352,0.0351,0.0364,0.036,0.0399,0.0399,0.0399,0.0398,0.0398,0,-0.0535,-0.0565,-0.0585,-0.0603,-0.0647,-0.0613,-0.063,-0.0596,-0.0543,-0.0519,-0.0406,-0.0354,-0.0164,-0.0037,0.0096,0.0251,0.0275,0.0348,0.0376,0.0342,0.0335,0.037,0.0365,0.0402,0.0401,0.04,0.04,0,-0.0577,-0.059,-0.0638,-0.0659,-0.0673,-0.0704,-0.0708,-0.0711,-0.0651,-0.0614,-0.0591,-0.0439,-0.0269,-0.008,0.0134,0.0224,0.0379,0.0425,0.0367,0.0391,0.0414,0.0406,0.049,0.049,0.049,0.049,0.049,0,-0.0599,-0.0629,-0.0692,-0.0734,-0.0751,-0.079,-0.0814,-0.0775,-0.0763,-0.066,-0.0641,-0.0479,-0.0358,-0.0072,0.0117,0.0364,0.0395,0.046,0.0443,0.0405,0.0425,0.0417,0.0409,0.049,0.049,0.049,0.049,0,-0.064,-0.0667,-0.0708,-0.08,-0.0851,-0.0896,-0.0917,-0.0916,-0.0848,-0.0801,-0.0667,-0.0502,-0.0313,-0.0082,0.0112,0.0287,0.0411,0.046,0.0461,0.0446,0.0406,0.0424,0.0416,0.049,0.049,0.049,0.049,0,-0.0667,-0.0714,-0.0777,-0.0852,-0.0927,-0.097,-0.0977,-0.0941,-0.0914,-0.0782,-0.0741,-0.0516,-0.0377,-0.0122,0.0057,0.0228,0.0264,0.03,0.031,0.0312,0.023,0.0152,0.0182,0,0,0,0,0,-0.0686,-0.0741,-0.0822,-0.09,-0.0975,-0.1009,-0.1028,-0.1012,-0.0947,-0.0862,-0.0792,-0.0606,-0.0318,-0.019,-0.0023,0.0037,0.0275,0.0233,0.0316,0.0489,0.0489,0.0421,0,0,0,0,0,0,-0.0701,-0.078,-0.0823,-0.092,-0.0978,-0.1046,-0.1058,-0.1018,-0.0951,-0.0863,-0.0705,-0.0594,-0.0312,-0.041,-0.0028,0.0025,0.0092,0.038,0.0383,0.0489,0.0489,0.0489,0.0419,0,0,0,0,0]}]]